STARLINK-33750, 63513

Orbit data source: Space-Track

STARLINK-33750, 63513 is a payload satellite owned by SpaceX/Seattle (US) in LEO that was launched on Mon, 07 Apr 2025 UTC via an FALCON 9 launch vehicle from the Air Force Western Test Range (AFWTR). Payload-class satellites include a variety of spacecraft equipped with specific instruments for various scientific and technological missions. These include communications satellites like Starlink; space stations such as the ISS; scientific satellites like the Hubble; Earth observation satellites from companies like Planet Labs, Umbra, and HawkEye 360; GPS; miniature CubeSats for education and research; and military/defense satellites.

Loading next visibility...
Identifier
63513, 2025-071W
Orbit
LEO
Last TLE update
11 hours ago
Origin
Manufacturer
SpaceX/Seattle
Mission
Operational Commercial Communications
Bus & Motor
STARLINK V2MO, Unknown motor
Mass
575 kg wet, ~530 kg dry
Launch date (UTC)
2025-04-07 (1 month ago)
Launch vehicle
FALCON 9
Launch site
Air Force Western Test Range (AFWTR)
Object type
Payload
Rocket body
Debris
Shape & HBR
Box + 1 Pan, 29 m
Radar Cross Section
41.120 m², Large (>1 m²)

Expand to show TLE details & history

TLE from 11 hours ago
0 STARLINK-33750
1 63513U 25071W   25129.25002315 -.01367107  00000-0 -24192-1 0  9996
2 63513  53.1598 116.9362 0001445  71.4157  55.9611 15.52711369  6090
Epoch: 2025-05-09T06:00Z
Definitive object data (Epoch: 2025-05-09T06:00:02Z)
Latitude
39.613°
Longitude
-58.45022°
Altitude
411.768 km
Speed
7.669 km/s
True Right ascension
17h 15m 28s
True Declination
39° 26' 08"
Sunlit
Object was in full shadow at TLE epoch
Visualization TLE readout
Latitude
53.26744°
Longitude
-115.82204°
Altitude
418.273 km
Speed
7.667 km/s
Apparent Right ascension
13h 06m 03s
Apparent Declination
8° 36' 04"
Sunlit
Object is in daylight
Visualization observer readout
Local Sidereal Time
00:49:30
Azimuth
354.546° N
Elevation
-41.332°
Doppler factor
1
Orbital elements
Apogee altitude
410.053 km
Perigee altitude
408.092 km
Semi-major axis
6,787.209 km
Eccentricity
0.0001445
Inclination
53.1598°
RAAN
116.9362°
Arg. of periapsis
71.4157°
True anomaly
55.97482°
Mean anomaly
55.9611°
Eccentric anomaly
55.96796°
Mean motion
3.88156 °/min
BSTAR
-0.024192
Orbital period
92.75 mins
Loading maneuver chart data...
Loading SW <> Apogee altitude chart data...
Loading historical data...
Loading historical data...
Loading historical data...
Loading historical data...
Loading historical data...
Loading historical data...
Loading historical data...

STARLINK-33750 Visibility forecast

Observer location: undefined°, undefined°

Span
Click to sort rows by Start time (UTC) header in descending order
Start Az.
Max El. time (UTC)
Max El. Az.
Max El.
End time (UTC)
End Az.
5 mins2025-05-10 01:43:59.304Z221.769° SW2025-05-10 01:46:59.304Z77.707° E40.791°2025-05-10 01:48:59.304Z54.666° ENE
4 mins2025-05-10 08:14:59.304Z333.858° NNW2025-05-10 08:15:59.304Z10.672° NNE37.476°2025-05-10 08:18:59.304Z112.59° SE
|